N777BS KISM-KMTH

Flight info

Callsign N777BS
Flight time 1h 0m
Altitude 20000
Route FSHUN TOSHE FROGZ
Aircraft STAR/L-SDFGRY/C

Departure

Time 2026-05-04 05:39
Airport Kissimmee Gateway Airport (KISM)

Arrival

Time 2026-05-04 06:40
Airport Florida Keys Marathon International Airport (KMTH)
Time Latitude Longitude Altitude Speed Heading
2026-05-04 05:32 28.29323 -81.44139 87 ft 0 kts 238°
2026-05-04 05:33 28.29323 -81.44140 87 ft 0 kts 238°
2026-05-04 05:33 28.29322 -81.44141 87 ft 1 kts 238°
2026-05-04 05:33 28.29288 -81.44142 87 ft 6 kts 148°
2026-05-04 05:34 28.29273 -81.44077 87 ft 15 kts 125°
2026-05-04 05:34 28.29143 -81.43979 87 ft 26 kts 148°
2026-05-04 05:34 28.29045 -81.43986 88 ft 17 kts 238°
2026-05-04 05:34 28.28977 -81.44113 88 ft 26 kts 237°
2026-05-04 05:35 28.28894 -81.44265 89 ft 21 kts 238°
2026-05-04 05:35 28.28840 -81.44360 87 ft 0 kts 238°
2026-05-04 05:36 28.28835 -81.44370 89 ft 9 kts 238°
2026-05-04 05:36 28.28785 -81.44432 87 ft 0 kts 181°
2026-05-04 05:37 28.28777 -81.44432 89 ft 8 kts 182°
2026-05-04 05:37 28.28697 -81.44397 88 ft 15 kts 116°
2026-05-04 05:37 28.28702 -81.44372 88 ft 0 kts 54°
2026-05-04 05:38 28.28704 -81.44369 88 ft 7 kts 54°
2026-05-04 05:38 28.28817 -81.44167 90 ft 52 kts 58°
2026-05-04 05:38 28.29089 -81.43681 89 ft 95 kts 58°
2026-05-04 05:39 28.29504 -81.42924 340 ft 120 kts 56°
2026-05-04 05:39 28.30030 -81.41013 1615 ft 138 kts 89°
2026-05-04 05:39 28.29817 -81.39905 2195 ft 148 kts 106°
2026-05-04 05:40 28.28125 -81.39080 3691 ft 151 kts 202°
2026-05-04 05:40 28.27254 -81.39700 4480 ft 145 kts 213°
2026-05-04 05:40 28.26442 -81.40365 5158 ft 148 kts 217°
2026-05-04 05:41 28.25611 -81.41077 5818 ft 150 kts 218°
2026-05-04 05:41 28.24793 -81.41792 6562 ft 148 kts 219°
2026-05-04 05:41 28.23984 -81.42505 7253 ft 147 kts 220°
2026-05-04 05:41 28.23177 -81.43216 7941 ft 146 kts 221°
2026-05-04 05:42 28.22378 -81.43917 8667 ft 145 kts 221°
2026-05-04 05:42 28.21448 -81.44512 9159 ft 167 kts 210°
2026-05-04 05:42 28.20258 -81.45015 9391 ft 198 kts 203°
2026-05-04 05:42 28.18876 -81.45471 9888 ft 204 kts 201°
2026-05-04 05:43 28.17518 -81.45818 10708 ft 196 kts 195°
2026-05-04 05:43 28.16191 -81.46015 11513 ft 188 kts 195°
2026-05-04 05:43 28.14932 -81.46239 12323 ft 179 kts 198°
2026-05-04 05:45 28.06813 -81.47724 17023 ft 159 kts 203°
2026-05-04 05:45 28.05745 -81.47918 17649 ft 156 kts 204°
2026-05-04 05:47 27.97406 -81.49427 20038 ft 226 kts 201°
2026-05-04 05:47 27.95805 -81.49714 20067 ft 240 kts 200°
2026-05-04 05:47 27.94117 -81.50016 20082 ft 250 kts 200°
2026-05-04 05:48 27.92390 -81.50325 20084 ft 259 kts 198°
2026-05-04 05:48 27.90494 -81.50202 20082 ft 282 kts 180°
2026-05-04 05:48 27.88587 -81.49650 20088 ft 290 kts 176°
2026-05-04 05:48 27.86630 -81.49098 20088 ft 289 kts 180°
2026-05-04 05:49 27.84655 -81.48645 20085 ft 292 kts 179°
2026-05-04 05:49 27.82664 -81.48111 20086 ft 294 kts 178°
2026-05-04 05:49 27.80667 -81.47617 20080 ft 295 kts 179°
2026-05-04 05:49 27.78653 -81.47112 20064 ft 296 kts 178°
2026-05-04 05:51 27.64504 -81.43536 20082 ft 299 kts 178°
2026-05-04 05:51 27.62473 -81.43024 20082 ft 299 kts 178°
2026-05-04 05:52 27.60441 -81.42512 20083 ft 299 kts 178°
2026-05-04 05:52 27.58402 -81.41999 20082 ft 300 kts 178°
2026-05-04 05:52 27.56368 -81.41486 20082 ft 300 kts 178°
2026-05-04 05:52 27.54332 -81.40974 20091 ft 300 kts 178°
2026-05-04 05:53 27.52292 -81.40460 20091 ft 300 kts 178°
2026-05-04 05:54 27.38040 -81.37006 20075 ft 298 kts 180°
2026-05-04 05:55 27.35999 -81.36547 20076 ft 299 kts 179°
2026-05-04 05:55 27.33981 -81.36077 20076 ft 299 kts 179°
2026-05-04 05:55 27.31944 -81.35610 20067 ft 299 kts 179°
2026-05-04 05:55 27.29907 -81.35144 20067 ft 299 kts 179°
2026-05-04 05:56 27.27870 -81.34674 20067 ft 299 kts 179°
2026-05-04 05:56 27.25835 -81.34207 20067 ft 299 kts 179°
2026-05-04 05:56 27.23801 -81.33741 20067 ft 298 kts 179°
2026-05-04 05:56 27.21762 -81.33273 20067 ft 298 kts 179°
2026-05-04 05:57 27.19728 -81.32807 20042 ft 298 kts 179°
2026-05-04 05:57 27.17688 -81.32339 20052 ft 299 kts 179°
2026-05-04 05:57 27.15651 -81.31872 20057 ft 299 kts 179°
2026-05-04 05:57 27.13607 -81.31404 20059 ft 299 kts 179°
2026-05-04 05:58 27.11565 -81.30936 20061 ft 300 kts 179°
2026-05-04 05:58 27.09525 -81.30469 20061 ft 300 kts 179°
2026-05-04 05:58 27.07477 -81.30000 20059 ft 300 kts 179°
2026-05-04 05:58 27.05430 -81.29532 20059 ft 300 kts 179°
2026-05-04 05:59 27.03390 -81.29066 20059 ft 300 kts 179°
2026-05-04 05:59 27.01331 -81.28595 20059 ft 301 kts 179°
2026-05-04 05:59 26.99306 -81.28132 20054 ft 300 kts 179°
2026-05-04 05:59 26.97265 -81.27666 20056 ft 299 kts 179°
2026-05-04 06:00 26.95222 -81.27199 20052 ft 299 kts 179°
2026-05-04 06:00 26.93180 -81.26734 20054 ft 299 kts 179°
2026-05-04 06:00 26.91146 -81.26270 20055 ft 298 kts 179°
2026-05-04 06:00 26.89114 -81.25807 20032 ft 298 kts 179°
2026-05-04 06:01 26.87083 -81.25343 20044 ft 298 kts 179°
2026-05-04 06:01 26.85044 -81.24878 20049 ft 298 kts 179°
2026-05-04 06:03 26.70767 -81.21630 20046 ft 300 kts 179°
2026-05-04 06:03 26.68728 -81.21166 20046 ft 300 kts 179°
2026-05-04 06:05 26.54433 -81.17923 20038 ft 300 kts 179°
2026-05-04 06:05 26.50342 -81.16996 20042 ft 300 kts 179°
2026-05-04 06:05 26.48287 -81.16531 20041 ft 300 kts 179°
2026-05-04 06:06 26.46238 -81.16067 20037 ft 300 kts 179°
2026-05-04 06:06 26.44190 -81.15604 20037 ft 301 kts 179°
2026-05-04 06:06 26.42165 -81.15146 20042 ft 301 kts 179°
2026-05-04 06:06 26.40110 -81.14682 20041 ft 301 kts 179°
2026-05-04 06:07 26.38057 -81.14217 20042 ft 301 kts 179°
2026-05-04 06:07 26.36010 -81.13755 20036 ft 301 kts 179°
2026-05-04 06:07 26.33962 -81.13292 20039 ft 301 kts 179°
2026-05-04 06:07 26.31911 -81.12829 20043 ft 301 kts 179°
2026-05-04 06:08 26.29849 -81.12364 20038 ft 301 kts 179°
2026-05-04 06:08 26.27799 -81.11903 20021 ft 301 kts 178°
2026-05-04 06:08 26.25746 -81.11439 20026 ft 301 kts 178°
2026-05-04 06:08 26.23687 -81.10974 20032 ft 302 kts 178°
2026-05-04 06:09 26.21623 -81.10510 20037 ft 303 kts 178°
2026-05-04 06:09 26.19559 -81.10045 20038 ft 304 kts 178°
2026-05-04 06:11 26.05038 -81.06778 20038 ft 305 kts 178°
2026-05-04 06:11 26.02948 -81.06309 20033 ft 306 kts 178°
2026-05-04 06:13 25.88222 -81.03247 17333 ft 302 kts 181°
2026-05-04 06:14 25.76186 -81.01365 14981 ft 282 kts 180°
2026-05-04 06:14 25.74244 -81.01062 14606 ft 281 kts 181°
2026-05-04 06:15 25.72315 -81.00767 14237 ft 280 kts 181°
2026-05-04 06:15 25.70388 -81.00470 13871 ft 279 kts 180°
2026-05-04 06:15 25.68465 -81.00173 13463 ft 279 kts 180°
2026-05-04 06:15 25.66538 -80.99878 13035 ft 279 kts 180°
2026-05-04 06:16 25.64623 -80.99582 12636 ft 279 kts 179°
2026-05-04 06:16 25.62689 -80.99282 12237 ft 280 kts 179°
2026-05-04 06:16 25.60753 -80.98986 11841 ft 281 kts 179°
2026-05-04 06:16 25.58842 -80.98692 11457 ft 281 kts 179°
2026-05-04 06:17 25.56899 -80.98393 11076 ft 282 kts 179°
2026-05-04 06:17 25.54957 -80.98094 10696 ft 282 kts 178°
2026-05-04 06:17 25.53015 -80.97796 10321 ft 279 kts 178°
2026-05-04 06:17 25.51108 -80.97501 9955 ft 273 kts 178°
2026-05-04 06:18 25.49238 -80.97217 9543 ft 270 kts 178°
2026-05-04 06:18 25.48012 -80.97029 9270 ft 268 kts 178°
2026-05-04 06:18 25.46170 -80.96745 8864 ft 265 kts 178°
2026-05-04 06:20 25.33635 -80.94822 6160 ft 255 kts 176°
2026-05-04 06:20 25.31879 -80.94552 5763 ft 252 kts 176°
2026-05-04 06:21 25.25456 -80.93573 4201 ft 221 kts 175°
2026-05-04 06:21 25.23945 -80.93340 3808 ft 217 kts 175°
2026-05-04 06:22 25.22450 -80.93113 3421 ft 215 kts 175°
2026-05-04 06:22 25.20981 -80.92887 3028 ft 212 kts 175°
2026-05-04 06:25 25.03989 -80.90151 2789 ft 144 kts 167°
2026-05-04 06:25 25.02911 -80.89893 2491 ft 171 kts 172°
2026-05-04 06:26 25.01791 -80.89650 2248 ft 133 kts 163°
2026-05-04 06:26 25.00805 -80.89367 2243 ft 161 kts 176°
2026-05-04 06:26 24.99606 -80.89142 1897 ft 190 kts 171°
2026-05-04 06:26 24.98273 -80.88831 1765 ft 199 kts 168°
2026-05-04 06:27 24.92839 -80.88103 2564 ft 143 kts 159°
2026-05-04 06:28 24.91839 -80.87735 2653 ft 161 kts 173°
2026-05-04 06:28 24.90641 -80.87581 550 ft 130 kts 170°
2026-05-04 06:28 24.90565 -80.87565 6 ft 0 kts 336°
2026-05-04 06:29 24.90770 -80.87662 552 ft 232 kts 337°
2026-05-04 06:29 24.92121 -80.88247 1400 ft 174 kts 339°
2026-05-04 06:29 24.93176 -80.88435 2029 ft 130 kts 352°
2026-05-04 06:29 24.93864 -80.88491 2022 ft 152 kts
2026-05-04 06:30 24.95017 -80.87940 1376 ft 199 kts 37°
2026-05-04 06:30 24.95917 -80.86638 926 ft 219 kts 63°
2026-05-04 06:30 24.95886 -80.85436 2465 ft 133 kts 113°
2026-05-04 06:30 24.95348 -80.84622 2560 ft 138 kts 146°
2026-05-04 06:31 24.94364 -80.84242 2353 ft 165 kts 178°
2026-05-04 06:31 24.93136 -80.84163 2110 ft 188 kts 190°
2026-05-04 06:31 24.91857 -80.84389 1893 ft 194 kts 182°
2026-05-04 06:31 24.90574 -80.84011 1609 ft 179 kts 165°
2026-05-04 06:32 24.89449 -80.84008 1672 ft 149 kts 196°
2026-05-04 06:33 24.81352 -80.86003 2089 ft 200 kts 197°
2026-05-04 06:34 24.80014 -80.86464 1824 ft 195 kts 205°
2026-05-04 06:34 24.78882 -80.87272 1399 ft 183 kts 229°
2026-05-04 06:34 24.78228 -80.88341 1436 ft 157 kts 247°
2026-05-04 06:34 24.77880 -80.89406 1315 ft 134 kts 255°
2026-05-04 06:35 24.77690 -80.90323 1420 ft 139 kts 258°
2026-05-04 06:36 24.75417 -80.97442 1455 ft 158 kts 251°
2026-05-04 06:37 24.75051 -80.98599 1181 ft 163 kts 254°
2026-05-04 06:37 24.74688 -80.99774 932 ft 155 kts 248°
2026-05-04 06:37 24.74224 -81.00807 631 ft 149 kts 252°
2026-05-04 06:37 24.73869 -81.01861 492 ft 147 kts 252°
2026-05-04 06:38 24.73483 -81.02862 354 ft 141 kts 251°
2026-05-04 06:38 24.73127 -81.03806 154 ft 130 kts 249°
2026-05-04 06:40 24.72458 -81.05402 10 ft 21 kts 68°
2026-05-04 06:40 24.72442 -81.05329 10 ft 6 kts 162°
2026-05-04 06:40 24.72395 -81.05390 10 ft 19 kts 224°
2026-05-04 06:40 24.72413 -81.05436 10 ft 7 kts 146°
2026-05-04 06:41 24.72409 -81.05435 10 ft 2 kts 166°
2026-05-04 06:41 24.72396 -81.05473 10 ft 0 kts 251°